Weather History for Tekamah, NE

Change the Weather History Date:

Saturday, September 7, 2013

  Actual Average Record
Temperature  
Mean Temperature 78 °F -  
Max Temperature 84 °F 85 °F 100 °F (1971)
Min Temperature 71 °F 58 °F 38 °F (1956)
Cooling Degree Days 12    
Growing Degree Days 28 (Base 50)    
Moisture  
Dew Point 70 °F    
Average Humidity 79    
Maximum Humidity 93    
Minimum Humidity 63    
Precipitation  
Precipitation 0.00 in - - ()
Sea Level Pressure  
Sea Level Pressure 29.86 in    
Wind  
Wind Speed 6 mph (East)    
Max Wind Speed 9 mph    
Max Gust Speed -    
Visibility 9 miles    
Events      
Averages and records for this station are not official NWS values.
T = Trace of Precipitation, MM = Missing Value Source: NWS Daily Summary

Daily Weather History Graph

Daily Weather History Graph

Search for Another Location

Airport:

Trip Planner

Search our weather history database for the weather conditions in past years. The results will help you decide how hot, cold, wet, or windy it might be!

Date:

Astronomy

Sep. 07, 2013 Rise Set
Actual Time 6:57 AM CDT 7:47 PM CDT
Civil Twilight 6:28 AM CDT 8:15 PM CDT
Nautical Twilight 5:55 AM CDT 8:49 PM CDT
Astronomical Twilight 5:20 AM CDT 9:23 PM CDT
Moon 9:15 AM CDT (9/7) 8:43 PM CDT (9/7)
Length of Visible Light 13h 46m
Length of Day
12h 50m
Waxing Crescent, 5% of the Moon is Illuminated
Sep 7
Waxing Crescent
Sep 12
First Quarter
Sep 19
Full
Sep 26
Last Quarter
Oct 4
New

Hourly Weather History & Observations

Time (CDT) Temp. Heat Index Dew Point Humidity Pressure Visibility Wind Dir Wind Speed Gust Speed Precip Events Conditions
12:54 AM 73.9 °F - 68.0 °F 82% 29.86 in 10.0 mi SSE 6.9 mph - N/A   Clear
1:54 AM 73.9 °F - 68.0 °F 82% 29.86 in 10.0 mi SSE 8.1 mph - N/A   Clear
2:54 AM 73.0 °F - 66.9 °F 81% 29.85 in 10.0 mi SSE 8.1 mph - N/A   Clear
3:54 AM 73.0 °F - 66.9 °F 81% 29.84 in 10.0 mi SSE 6.9 mph - N/A   Clear
4:54 AM 72.0 °F - 66.9 °F 84% 29.83 in 10.0 mi SSE 6.9 mph - N/A   Clear
5:54 AM 71.1 °F - 66.9 °F 87% 29.82 in 10.0 mi SSE 9.2 mph - N/A   Clear
6:54 AM 72.0 °F - 66.9 °F 84% 29.83 in 10.0 mi SSE 6.9 mph - N/A   Clear
7:54 AM 72.0 °F - 68.0 °F 87% 29.85 in 9.0 mi SSW 3.5 mph - N/A   Clear
8:54 AM 75.9 °F - 69.1 °F 79% 29.85 in 10.0 mi South 4.6 mph - N/A   Clear
9:54 AM 78.1 °F - 69.1 °F 74% 29.85 in 10.0 mi South 5.8 mph - N/A   Clear
10:54 AM 82.0 °F 85.9 °F 70.0 °F 67% 29.84 in 10.0 mi Variable 5.8 mph - N/A   Clear
11:54 AM 84.0 °F 88.4 °F 70.0 °F 63% 29.88 in 10.0 mi WNW 9.2 mph - N/A   Clear
12:54 PM 82.0 °F 86.3 °F 71.1 °F 69% 29.88 in 10.0 mi North 5.8 mph - 0.00 in   Partly Cloudy
1:54 PM 81.0 °F 85.2 °F 72.0 °F 74% 29.87 in 10.0 mi South 5.8 mph - 0.00 in   Partly Cloudy
2:54 PM 82.0 °F 86.7 °F 72.0 °F 71% 29.87 in 10.0 mi North 6.9 mph - N/A   Clear
3:54 PM 82.9 °F 88.0 °F 72.0 °F 69% 29.87 in 10.0 mi North 6.9 mph - N/A   Clear
4:54 PM 84.0 °F 89.6 °F 72.0 °F 67% 29.87 in 10.0 mi NNW 5.8 mph - N/A   Clear
5:54 PM 82.9 °F 87.5 °F 71.1 °F 67% 29.87 in 10.0 mi North 4.6 mph - N/A   Clear
6:54 PM 82.9 °F 88.8 °F 73.0 °F 72% 29.87 in 10.0 mi Calm Calm - N/A   Clear
7:54 PM 75.9 °F - 73.0 °F 91% 29.89 in 8.0 mi North 3.5 mph - N/A   Clear
8:54 PM 73.9 °F - 70.0 °F 87% 29.88 in 9.0 mi North 3.5 mph - N/A   Clear
9:54 PM 73.0 °F - 70.0 °F 90% 29.89 in 6.0 mi North 3.5 mph - N/A   Clear
10:54 PM 72.0 °F - 70.0 °F 93% 29.89 in 4.0 mi North 4.6 mph - N/A   Clear
11:54 PM 71.1 °F - 69.1 °F 93% 29.89 in 2.5 mi North 4.6 mph - N/A   Clear